Morgantown, WV

1:15 AM EST on February 08, 2016 (GMT -0500)
Morgantown Municipal-Hart

Weather History for KMGW - December, 2005

Change the Weather History Date:

Monday, December 5, 2005

  Actual Average Record
Temperature  
Mean Temperature 29 °F 38 °F  
Max Temperature 30 °F 45 °F 75 °F (1982)
Min Temperature 28 °F 30 °F 11 °F (1974)
Degree Days  
Heating Degree Days 36 27  
Month to date heating degree days 133  
Since 1 July heating degree days 1181  
Cooling Degree Days 0 0  
Month to date cooling degree days 0  
Year to date cooling degree days 814  
Moisture  
Dew Point 25 °F    
Average Humidity 85    
Maximum Humidity 93    
Minimum Humidity 79    
Precipitation  
Precipitation 0.00 in 0.10 in - ()
Month to date precipitation 0.51  
Year to date precipitation 39.43  
Sea Level Pressure  
Sea Level Pressure 30.11 in    
Wind  
Wind Speed 3 mph (North)    
Max Wind Speed 7 mph    
Max Gust Speed -    
Visibility 9 miles    
Events      
T = Trace of Precipitation, MM = Missing Value Source: NWS Daily Summary

Daily Weather History Graph

Daily Weather History Graph

Search for Another Location

Airport or City:

Trip Planner

Search our weather history database for the weather conditions in past years. The results will help you decide how hot, cold, wet, or windy it might be!

Date:

Astronomy

Dec. 05, 2005 Rise Set
Actual Time 7:25 AM EST 4:55 PM EST
Civil Twilight 6:55 AM EST 5:25 PM EST
Nautical Twilight 6:21 AM EST 5:58 PM EST
Astronomical Twilight 5:49 AM EST 6:31 PM EST
Moon 11:29 AM EST (12/5) 9:14 PM EST (12/5)
Length of Visible Light 10h 30m
Length of Day
9h 30m
Waxing Crescent, 21% of the Moon is Illuminated
Dec 5
Waxing Crescent
Dec 8
First Quarter
Dec 15
Full
Dec 23
Last Quarter
Dec 30
New

Hourly Weather History & Observations

Time (EST) Temp. Windchill Dew Point Humidity Pressure Visibility Wind Dir Wind Speed Gust Speed Precip Events Conditions
12:53 AM 30.9 °F - 28.0 °F 89% 30.17 in 7.0 mi Calm Calm - N/A   Overcast
1:53 AM 30.0 °F 25.2 °F 26.1 °F 85% 30.17 in 10.0 mi NW 4.6 mph - N/A   Overcast
2:02 AM 30.2 °F - 26.6 °F 86% 30.13 in 10.0 mi Calm Calm - N/A   Overcast
2:53 AM 30.0 °F - 25.0 °F 82% 30.18 in 10.0 mi Calm Calm - N/A   Overcast
3:53 AM 28.9 °F - 26.1 °F 89% 30.18 in 10.0 mi Calm Calm - N/A   Overcast
4:53 AM 28.9 °F - 26.1 °F 89% 30.18 in 8.0 mi Calm Calm - N/A   Overcast
5:14 AM 28.4 °F 24.6 °F 26.6 °F 93% 30.14 in 8.0 mi North 3.5 mph - N/A   Overcast
5:21 AM 28.4 °F - 26.6 °F 93% 30.14 in 8.0 mi Calm Calm - N/A   Overcast
5:53 AM 28.9 °F 23.9 °F 25.0 °F 85% 30.17 in 10.0 mi NNE 4.6 mph - N/A   Overcast
6:01 AM 28.4 °F 23.3 °F 24.8 °F 86% 30.13 in 10.0 mi North 4.6 mph - N/A   Overcast
6:24 AM 28.4 °F 22.2 °F 24.8 °F 86% 30.13 in 10.0 mi North 5.8 mph - N/A   Overcast
6:53 AM 28.0 °F 22.8 °F 25.0 °F 88% 30.18 in 9.0 mi North 4.6 mph - N/A   Overcast
7:53 AM 28.0 °F 22.8 °F 24.1 °F 85% 30.18 in 9.0 mi North 4.6 mph - N/A   Overcast
8:53 AM 28.0 °F 22.8 °F 24.1 °F 85% 30.19 in 10.0 mi NNE 4.6 mph - N/A   Overcast
9:53 AM 28.0 °F 21.7 °F 24.1 °F 85% 30.18 in 8.0 mi North 5.8 mph - N/A   Overcast
10:53 AM 28.9 °F 21.9 °F 24.1 °F 82% 30.16 in 10.0 mi North 6.9 mph - N/A   Overcast
11:53 AM 30.0 °F 24.1 °F 24.1 °F 79% 30.13 in 10.0 mi NNE 5.8 mph - N/A   Overcast
12:32 PM 30.2 °F 24.3 °F 24.8 °F 80% 30.06 in 9.0 mi North 5.8 mph - N/A   Overcast
12:53 PM 28.9 °F 22.8 °F 24.1 °F 82% 30.08 in 9.0 mi NNE 5.8 mph - N/A   Overcast
1:53 PM 30.0 °F 23.2 °F 25.0 °F 82% 30.06 in 8.0 mi North 6.9 mph - N/A   Overcast
2:53 PM 28.9 °F 25.2 °F 25.0 °F 85% 30.06 in 7.0 mi Variable 3.5 mph - N/A   Overcast
3:53 PM 28.9 °F 23.9 °F 24.1 °F 82% 30.06 in 8.0 mi NNE 4.6 mph - N/A   Overcast
4:53 PM 30.0 °F 26.5 °F 26.1 °F 85% 30.06 in 6.0 mi NNW 3.5 mph - N/A   Overcast
4:59 PM 28.4 °F 24.6 °F 26.6 °F 93% 30.03 in 7.0 mi Variable 3.5 mph - N/A   Overcast
5:53 PM 28.9 °F 25.2 °F 25.0 °F 85% 30.06 in 7.0 mi North 3.5 mph - N/A   Overcast
6:18 PM 28.4 °F 24.6 °F 24.8 °F 86% 30.02 in 8.0 mi NNW 3.5 mph - N/A   Overcast
6:53 PM 28.9 °F 25.2 °F 25.0 °F 85% 30.06 in 8.0 mi NNW 3.5 mph - N/A   Overcast
7:53 PM 28.9 °F 22.8 °F 24.1 °F 82% 30.07 in 10.0 mi North 5.8 mph - N/A   Overcast
8:34 PM 28.4 °F 24.6 °F 24.8 °F 86% 30.03 in 9.0 mi North 3.5 mph - N/A   Overcast
8:53 PM 28.9 °F - 24.1 °F 82% 30.06 in 9.0 mi Calm Calm - N/A   Overcast
9:53 PM 28.0 °F - 24.1 °F 85% 30.07 in 8.0 mi Calm Calm - N/A   Overcast
10:13 PM 28.4 °F - 24.8 °F 86% 30.02 in 9.0 mi Calm Calm - N/A   Overcast
10:53 PM 28.0 °F 21.7 °F 23.0 °F 81% 30.07 in 10.0 mi WNW 5.8 mph - N/A   Overcast
11:17 PM 28.4 °F 22.2 °F 24.8 °F 86% 30.03 in 10.0 mi Variable 5.8 mph - N/A   Overcast
11:53 PM 28.0 °F 20.8 °F 23.0 °F 81% 30.08 in 10.0 mi WNW 6.9 mph - N/A   Overcast